This is the latest recevied weather packets stored in our database for station/object OH2TI. If no packets are shown the sender has not sent any weather packets the latest 10 day(s).
| Time | Temp. | Humidity | Pressure | Rain* | Wind** | Luminosity | Snow |
|---|---|---|---|---|---|---|---|
| 1777674546 | 7.78° C | 74% | 1010.8 hPa | - | - | - | - |
| 1777673844 | 8.33° C | 73% | 1010.8 hPa | - | - | - | - |
| 1777673233 | 8.33° C | 71% | 1011 hPa | - | - | - | - |
| 1777672830 | 8.33° C | 71% | 1011 hPa | - | - | - | - |
| 1777671980 | 8.33° C | 70% | 1011.2 hPa | - | - | - | - |
| 1777671133 | 8.89° C | 69% | 1011.4 hPa | - | - | - | - |
| 1777670243 | 9.44° C | 67% | 1011.7 hPa | - | - | - | - |
| 1777669383 | 9.44° C | 66% | 1011.7 hPa | - | - | - | - |
| 1777668593 | 10° C | 65% | 1011.7 hPa | - | - | - | - |
| 1777668065 | 10° C | 64% | 1011.7 hPa | - | - | - | - |
| 1777667433 | 10° C | 64% | 1011.8 hPa | - | - | - | - |
| 1777666680 | 10° C | 63% | 1012 hPa | - | - | - | - |
| 1777666075 | 10.56° C | 62% | 1012 hPa | - | - | - | - |
| 1777665710 | 10.56° C | 61% | 1011.9 hPa | - | - | - | - |
| 1777665103 | 11.11° C | 61% | 1012.1 hPa | - | - | - | - |
| 1777664445 | 11.11° C | 61% | 1012.1 hPa | - | - | - | - |
| 1777663723 | 11.67° C | 60% | 1012.2 hPa | - | - | - | - |
| 1777663000 | 12.22° C | 57% | 1012.4 hPa | - | - | - | - |
| 1777662690 | 12.78° C | 54% | 1012.4 hPa | - | - | - | - |
| 1777662053 | 13.33° C | 52% | 1012.4 hPa | - | - | - | - |
| 1777661563 | 13.33° C | 51% | 1012.4 hPa | - | - | - | - |
| 1777661020 | 13.89° C | 50% | 1012.4 hPa | - | - | - | - |
| 1777660440 | 14.44° C | 48% | 1012.5 hPa | - | - | - | - |
| 1777660123 | 14.44° C | 47% | 1012.6 hPa | - | - | - | - |
| 1777659330 | 15° C | 47% | 1012.6 hPa | - | - | - | - |
* Rain since midnight (hover to see other rain measurements)
** Current wind speed in m/s (hover to see current wind gust speed)